Wind_Speed
20 19 19 20 20 20 21 20 20 19 20 20 21 21 20 21 20 20 20 21 20 21 21 21 21 21 22 22 22 22 22 23 23 23 24 25 25 25 26 26 27 27 26 25
21 21 21 22 21 21 21 21 21 21 20 20 21 22 22 22 22 21 21 22 21 21 22 22 23 23 22 22 22 22 22 23 23 24 24 25 26 26 27 26 26 26 26 26
22 21 22 22 21 21 22 22 23 23 22 22 23 23 23 24 24 23 23 23 23 22 22 23 23 23 23 23 23 23 23 23 23 24 24 25 26 26 26 26 26 26 26 26
23 22 23 21 21 21 23 23 24 24 24 23 24 24 25 25 24 24 24 24 24 24 23 23 23 23 24 24 24 24 24 24 24 25 25 26 26 26 26 26 26 26 26 27
23 23 23 22 22 22 23 23 24 24 24 24 24 24 24 24 24 25 25 25 25 25 24 24 24 24 25 25 25 26 26 26 26 26 26 26 27 27 27 27 27 27 27 27
23 23 24 23 22 23 24 24 24 24 24 23 23 24 24 25 26 26 26 25 25 25 25 25 25 25 26 26 26 27 27 27 27 27 28 28 28 28 27 27 28 28 28 28
24 25 25 23 22 23 24 24 24 24 24 24 24 24 25 26 27 27 26 26 26 26 26 26 25 26 26 27 28 28 28 28 28 28 28 29 29 29 28 28 28 28 28 28
24 25 26 23 22 23 23 23 23 24 24 24 24 25 26 27 26 26 26 27 27 27 26 26 27 28 28 28 28 29 29 29 29 29 29 29 29 29 29 29 29 29 29 29
25 26 25 24 24 23 23 24 24 25 25 25 25 25 26 27 27 27 27 27 28 28 27 27 27 27 28 28 28 29 29 29 29 29 29 29 29 29 29 29 29 29 29 29
26 27 26 26 26 25 25 24 24 25 25 25 25 26 26 26 27 27 28 28 28 28 28 27 27 26 26 26 28 29 30 30 29 29 29 29 30 30 30 30 30 30 29 29
27 27 28 28 27 27 27 26 26 26 25 26 27 27 27 27 27 27 28 28 28 28 28 28 28 28 27 28 28 29 30 30 30 30 30 30 31 31 31 30 30 30 30 30
28 28 28 28 28 27 27 27 27 27 27 27 27 27 27 28 28 28 28 28 28 28 28 28 28 28 28 29 29 29 29 29 30 30 30 31 31 31 30 30 30 31 30 30
29 29 29 29 29 28 28 28 28 29 29 29 29 28 28 29 29 28 29 29 29 29 28 28 27 28 28 28 29 29 29 29 29 30 30 31 31 31 30 30 30 30 30 30
31 31 30 30 30 30 29 28 28 29 29 30 30 29 29 29 29 29 29 29 29 29 29 29 28 27 28 28 28 28 29 29 30 30 31 31 30 30 30 30 30 30 30 30
31 31 31 30 29 29 30 30 29 30 30 30 30 30 30 29 29 29 29 29 29 29 29 28 28 27 27 27 28 28 28 29 29 30 30 30 30 29 29 30 30 30 30 30
31 30 30 30 30 30 31 31 31 31 31 30 30 30 30 30 29 30 30 29 29 29 28 28 28 28 28 28 28 28 29 28 28 29 29 30 31 30 30 30 30 30 30 30
30 30 30 30 30 31 31 31 31 31 30 30 30 30 30 30 29 29 29 29 28 28 28 29 29 28 28 28 28 29 29 29 29 29 30 30 31 31 30 31 31 31 31 31
30 30 31 31 31 31 31 31 31 30 30 30 30 30 30 30 29 29 29 28 28 28 29 29 29 29 29 29 29 29 29 29 29 29 30 30 30 30 31 31 31 32 31 31
29 29 29 30 30 30 30 30 30 30 30 30 29 29 29 29 29 28 28 28 28 28 28 29 29 29 29 30 30 30 30 30 31 31 32 32 31 31 31 32 32 32 32 32
28 28 29 29 30 30 30 30 30 30 30 30 29 29 29 30 29 29 29 29 29 30 29 29 29 30 30 30 30 30 30 31 31 32 32 31 31 31 32 32 32 32 32 32
28 28 28 28 29 29 29 30 30 29 29 29 29 29 30 30 29 30 30 29 29 29 29 29 29 30 30 31 30 30 30 31 31 31 31 31 31 31 31 31 31 31 30 31
28 28 28 28 28 27 28 28 27 27 27 27 28 29 29 29 29 30 30 30 29 30 30 29 30 30 31 31 32 32 32 32 32 31 30 31 31 31 30 30 30 30 30 31
28 28 28 28 28 28 28 27 26 26 26 27 27 28 28 29 30 30 30 31 31 31 30 30 30 30 31 31 31 31 31 31 31 30 30 31 31 30 30 30 31 31 30 30
28 28 28 28 28 28 28 27 27 27 27 27 28 28 29 30 30 31 31 32 31 31 31 31 31 31 31 31 31 31 31 31 31 31 31 31 30 30 31 31 31 30 30 30
28 28 28 29 29 28 28 28 28 28 28 28 29 29 29 29 30 30 31 31 31 32 32 31 30 30 31 31 31 31 31 32 32 31 31 31 30 30 30 31 31 30 29 29
28 28 28 29 28 28 28 28 29 28 29 29 29 28 29 29 30 30 30 30 30 30 30 30 30 30 30 31 31 31 32 32 31 31 30 30 29 29 29 30 30 29 28 29
27 27 28 28 28 28 28 29 29 29 29 29 28 28 29 29 29 29 30 30 30 30 30 30 30 31 31 31 31 31 31 31 30 30 30 30 30 30 30 29 28 28 28 28
Wind_Direction
258 257 259 260 262 265 266 267 268 269 270 272 274 277 279 281 283 284 286 286 287 287 286 285 285 285 284 283 283 283 283 284 284 284 286 287 289 290 290 291 290 291 290 289
259 258 258 260 261 263 266 268 271 272 272 272 273 275 276 279 282 283 285 286 287 288 287 286 286 285 284 283 284 284 284 284 284 285 286 287 289 289 290 291 291 289 289 288
259 259 259 259 264 265 266 269 272 273 273 272 274 275 275 276 280 283 285 286 287 288 287 285 284 284 283 282 282 283 284 284 285 286 288 289 289 290 291 291 291 289 289 288
260 260 261 265 266 267 269 270 272 274 275 275 275 276 276 276 279 281 283 285 285 285 285 284 284 284 283 282 283 283 283 283 285 286 288 288 288 288 289 289 290 290 289 288
261 262 263 264 266 267 269 271 272 273 274 274 275 276 275 275 278 282 284 285 286 286 285 283 283 283 283 283 283 284 285 285 285 286 286 286 287 286 287 289 290 290 289 287
260 261 264 266 267 266 268 270 272 273 275 276 277 277 277 277 278 282 284 286 287 288 287 286 283 281 280 281 282 283 284 284 284 285 283 285 286 285 286 288 289 289 288 287
263 263 264 267 268 267 268 272 275 275 277 276 276 279 279 279 279 279 282 285 287 288 287 287 285 282 280 280 280 281 283 284 284 284 284 284 286 286 285 286 287 288 288 287
264 265 267 268 269 267 269 272 274 276 277 278 278 279 279 279 278 279 281 284 286 288 288 288 288 286 283 280 280 280 282 284 285 285 285 285 285 286 287 287 287 288 288 287
265 266 269 269 268 268 268 270 272 275 277 279 279 278 279 280 279 279 281 284 286 286 287 287 288 287 284 282 281 282 283 284 286 287 287 286 286 287 287 287 288 288 287 287
263 265 266 267 267 267 267 267 270 274 276 278 279 280 281 282 281 280 281 285 286 286 286 287 288 287 287 284 283 281 281 283 285 286 287 287 287 287 287 286 287 287 287 287
264 265 266 267 267 267 267 268 270 274 275 276 278 280 280 281 281 281 283 285 287 287 287 287 286 286 286 286 285 283 281 282 283 284 286 286 287 286 285 285 285 287 287 287
264 266 267 267 268 267 268 269 270 272 274 275 278 279 280 281 282 283 284 285 286 287 287 287 287 286 286 286 286 285 282 282 282 282 285 286 287 288 286 285 285 285 285 287
265 265 266 267 267 267 269 271 271 273 274 275 277 279 280 282 284 284 284 285 286 285 285 286 287 287 287 286 287 287 286 285 283 284 285 287 287 289 288 287 286 286 287 288
265 264 265 266 267 268 269 271 272 273 275 276 278 279 279 280 281 283 285 286 285 285 285 285 287 287 287 287 287 287 286 285 285 286 286 287 287 288 288 287 287 286 287 289
265 265 266 267 267 269 270 272 273 273 274 275 277 278 279 279 280 282 284 286 285 285 284 284 285 286 287 287 286 287 287 287 287 288 288 288 288 289 288 288 287 287 287 288
265 265 266 266 268 270 272 273 273 274 275 274 275 277 279 280 280 282 283 284 284 286 284 283 284 285 285 286 286 286 287 288 288 289 289 289 288 289 289 289 289 289 289 289
266 266 266 267 269 271 271 273 274 274 275 274 275 276 278 279 280 282 282 283 284 285 285 284 283 284 285 286 286 286 286 286 288 290 290 290 290 290 291 291 289 289 289 289
269 268 267 268 270 271 273 273 273 274 273 274 274 275 276 278 280 281 282 283 283 284 285 286 286 286 287 289 289 288 288 288 289 290 291 291 291 292 292 291 291 289 289 288
267 268 269 270 270 271 273 274 274 274 274 274 274 273 274 277 279 282 284 284 285 285 286 286 286 286 287 289 289 288 289 290 291 291 292 292 292 292 292 292 292 290 289 289
267 268 269 270 272 273 275 275 276 276 274 274 274 273 274 276 279 281 283 284 285 286 286 285 286 286 287 289 290 289 289 290 291 292 293 294 294 294 294 294 293 292 290 289
268 269 270 271 272 274 275 277 277 276 274 273 273 274 275 277 279 281 282 283 285 287 287 286 286 287 288 289 290 290 290 291 291 292 293 295 296 296 294 293 293 292 290 290
269 271 271 273 274 274 276 277 277 276 275 274 274 274 275 276 279 281 283 285 286 288 287 287 287 287 288 288 288 289 290 290 291 291 292 294 295 296 294 293 293 292 291 290
270 272 273 274 274 275 275 276 276 276 276 277 276 276 276 278 279 280 281 283 286 288 287 287 287 289 291 291 290 289 289 290 290 291 291 292 293 294 294 294 293 292 291 290
272 273 273 274 274 275 275 275 275 277 278 278 278 278 279 280 280 280 281 282 283 285 286 287 287 288 290 291 290 290 290 290 291 291 292 293 293 293 293 293 293 291 291 290
272 273 273 273 274 274 273 274 275 277 278 279 279 278 279 281 282 282 282 282 283 285 286 287 288 288 289 290 290 290 291 292 293 293 293 293 292 292 292 292 292 291 289 289
274 274 273 273 273 273 273 275 275 277 278 279 278 278 279 281 282 283 283 283 284 285 286 287 288 288 289 289 290 290 291 293 294 294 294 293 293 293 293 292 291 289 287 287
274 274 274 273 273 273 275 275 276 277 278 278 277 278 280 281 282 283 285 285 285 285 286 286 287 288 288 288 289 290 291 292 293 293 293 293 292 292 292 291 290 289 287 287
Height
5782 5783 5784 5784 5785 5785 5786 5787 5787 5788 5787 5787 5787 5786 5785 5784 5784 5783 5782 5781 5780 5778 5777 5776 5775 5774 5773 5773 5772 5771 5770 5770 5769 5768 5767 5766 5765 5764 5762 5760 5759 5757 5755 5754
5777 5778 5778 5779 5780 5780 5781 5781 5781 5782 5782 5782 5781 5781 5780 5779 5778 5778 5777 5776 5774 5773 5772 5771 5769 5768 5767 5767 5766 5765 5764 5763 5762 5762 5761 5759 5758 5756 5755 5753 5751 5750 5748 5747
5771 5772 5772 5773 5775 5775 5776 5776 5776 5776 5777 5776 5776 5776 5775 5774 5773 5772 5771 5770 5769 5767 5766 5765 5763 5762 5761 5760 5760 5759 5758 5757 5756 5755 5754 5752 5751 5749 5748 5746 5744 5742 5741 5739
5765 5766 5766 5770 5770 5770 5770 5770 5770 5770 5770 5770 5769 5769 5768 5768 5767 5766 5765 5764 5763 5761 5760 5759 5757 5756 5755 5754 5753 5752 5751 5750 5749 5748 5747 5745 5744 5742 5741 5739 5737 5735 5733 5732
5759 5759 5760 5763 5763 5763 5764 5764 5764 5763 5763 5763 5763 5762 5762 5761 5761 5760 5759 5758 5757 5755 5753 5752 5751 5750 5748 5748 5746 5745 5744 5743 5742 5741 5739 5738 5736 5735 5733 5731 5730 5728 5726 5724
5753 5753 5753 5757 5757 5756 5758 5757 5757 5757 5757 5757 5756 5756 5756 5755 5754 5753 5752 5751 5750 5749 5747 5746 5744 5743 5741 5740 5739 5738 5737 5736 5735 5733 5732 5730 5728 5727 5725 5723 5721 5719 5718 5716
5746 5746 5747 5750 5750 5750 5751 5752 5751 5750 5750 5750 5749 5750 5749 5748 5747 5746 5746 5744 5743 5742 5740 5738 5737 5735 5734 5733 5732 5731 5729 5728 5727 5725 5723 5722 5720 5718 5717 5715 5713 5711 5710 5708
5740 5740 5743 5743 5743 5744 5743 5743 5743 5743 5743 5742 5742 5742 5741 5740 5740 5739 5738 5737 5736 5734 5733 5731 5729 5728 5726 5725 5724 5723 5721 5720 5719 5717 5716 5714 5712 5710 5709 5707 5705 5703 5702 5700
5735 5736 5735 5736 5736 5736 5736 5736 5736 5736 5736 5736 5735 5734 5734 5733 5732 5731 5730 5729 5728 5726 5725 5723 5722 5720 5718 5717 5715 5714 5713 5712 5710 5709 5707 5706 5704 5702 5700 5699 5697 5695 5694 5692
5727 5727 5728 5728 5729 5729 5729 5729 5729 5729 5729 5728 5728 5727 5727 5726 5725 5724 5723 5721 5720 5718 5717 5715 5713 5711 5710 5708 5707 5705 5704 5703 5702 5700 5699 5697 5695 5694 5692 5690 5689 5687 5685 5683
5720 5721 5721 5722 5722 5722 5722 5722 5722 5722 5722 5721 5720 5720 5719 5718 5717 5715 5714 5713 5711 5710 5708 5707 5705 5703 5701 5700 5698 5696 5695 5694 5693 5692 5690 5689 5687 5685 5684 5682 5680 5678 5677 5675
5713 5713 5713 5714 5714 5714 5714 5714 5714 5714 5714 5713 5712 5712 5711 5710 5709 5707 5706 5705 5703 5701 5700 5698 5696 5694 5693 5691 5689 5687 5685 5684 5684 5682 5681 5680 5678 5676 5674 5673 5671 5669 5667 5666
5705 5705 5705 5706 5706 5706 5706 5706 5706 5706 5706 5705 5704 5703 5703 5702 5700 5699 5698 5696 5694 5693 5691 5689 5688 5686 5684 5682 5680 5678 5676 5675 5674 5673 5672 5671 5669 5667 5666 5664 5662 5661 5659 5657
5696 5696 5697 5697 5698 5698 5698 5698 5698 5697 5697 5696 5696 5695 5694 5693 5692 5690 5689 5687 5686 5684 5682 5681 5679 5677 5675 5673 5671 5669 5668 5667 5666 5665 5663 5662 5660 5658 5657 5655 5654 5652 5650 5648
5687 5687 5688 5689 5689 5689 5689 5689 5688 5688 5688 5687 5687 5686 5685 5684 5683 5682 5680 5679 5677 5675 5674 5672 5671 5669 5667 5665 5663 5662 5660 5659 5657 5656 5654 5653 5651 5649 5647 5646 5644 5643 5641 5639
5678 5678 5679 5680 5680 5680 5680 5680 5679 5679 5678 5678 5677 5677 5676 5675 5674 5673 5672 5670 5668 5667 5665 5664 5662 5661 5659 5657 5655 5654 5652 5651 5649 5647 5645 5644 5642 5640 5639 5637 5635 5633 5632 5630
5670 5670 5670 5671 5671 5671 5671 5670 5670 5670 5669 5669 5668 5668 5667 5666 5665 5664 5663 5661 5660 5658 5657 5655 5654 5652 5650 5649 5647 5646 5644 5642 5641 5639 5637 5635 5633 5632 5630 5628 5626 5624 5623 5621
5661 5661 5661 5662 5662 5662 5662 5661 5661 5660 5660 5660 5659 5659 5658 5657 5657 5656 5654 5653 5651 5650 5649 5647 5646 5644 5643 5641 5639 5637 5636 5634 5632 5630 5628 5626 5624 5622 5621 5619 5617 5616 5614 5612
5652 5652 5652 5653 5653 5653 5652 5652 5652 5651 5651 5650 5650 5650 5649 5649 5648 5647 5646 5645 5643 5642 5640 5639 5637 5636 5635 5633 5631 5629 5628 5626 5624 5622 5620 5618 5615 5613 5611 5610 5608 5606 5605 5603
5644 5644 5644 5644 5644 5644 5643 5643 5643 5642 5642 5641 5641 5641 5640 5640 5639 5638 5637 5636 5635 5633 5632 5630 5629 5627 5626 5624 5622 5621 5619 5618 5616 5613 5611 5609 5607 5605 5602 5601 5599 5597 5595 5594
5636 5636 5636 5636 5635 5635 5634 5634 5633 5633 5633 5632 5632 5632 5632 5631 5630 5629 5628 5627 5626 5624 5623 5621 5620 5618 5617 5615 5614 5612 5610 5609 5607 5605 5603 5600 5598 5596 5594 5592 5590 5588 5586 5585
5628 5628 5627 5627 5627 5626 5626 5625 5625 5624 5624 5623 5623 5623 5622 5622 5621 5620 5619 5618 5617 5615 5614 5613 5611 5610 5608 5606 5604 5603 5601 5600 5598 5596 5594 5591 5589 5587 5585 5583 5581 5579 5578 5576
5619 5619 5619 5619 5619 5618 5617 5617 5616 5616 5615 5615 5614 5614 5613 5613 5612 5611 5610 5609 5608 5606 5605 5603 5602 5601 5599 5597 5595 5594 5592 5591 5589 5587 5585 5583 5581 5579 5577 5575 5572 5570 5568 5567
5611 5610 5610 5610 5610 5609 5609 5608 5608 5607 5607 5606 5605 5605 5604 5603 5603 5602 5601 5600 5599 5597 5596 5594 5593 5591 5590 5588 5586 5585 5583 5581 5580 5578 5576 5573 5571 5569 5567 5565 5563 5561 5559 5558
5602 5602 5602 5601 5601 5601 5600 5600 5599 5598 5598 5597 5596 5596 5595 5594 5593 5592 5591 5590 5589 5588 5586 5585 5584 5582 5580 5579 5577 5576 5574 5572 5570 5568 5566 5564 5562 5560 5558 5556 5554 5552 5550 5548
5593 5593 5593 5592 5592 5592 5591 5591 5590 5589 5589 5588 5587 5586 5586 5585 5584 5583 5582 5581 5580 5579 5577 5576 5575 5573 5572 5570 5568 5567 5565 5563 5561 5559 5557 5555 5553 5551 5549 5546 5544 5542 5541 5539
5585 5584 5584 5583 5583 5582 5582 5581 5581 5580 5580 5579 5578 5578 5577 5576 5575 5574 5573 5572 5571 5569 5568 5567 5565 5564 5562 5561 5559 5558 5556 5554 5552 5550 5548 5546 5543 5541 5539 5537 5535 5533 5531 5530